Flag for U.S.A. Weather past 2 weeks in Pontiac, Michigan, U.S.A.

Now
63 °F

Drizzle. Low clouds.


Feels Like: 63 °F
Forecast: 64 / 77 °F
Wind: 9 mph from Southwest

Location: Oakland County International Airport

Current Time: Aug 3, 2015 at 6:57:20 AM

Latest Report: Aug 3, 2015 at 5:53 AM


Visibility: 10 mi

Pressure: 29.72 "Hg

Humidity: 97%

Dew point: 62 °F

Location of PontiacLocation

Historic Weather in Pontiac — Graph

°F

Pontiac temperature yesterday

Maximum temperature yesterday: 90 °F (at 3:53 PM)
Minimum temperature yesterday: 60 °F (at 10:53 PM)
Average temperature yesterday: 74 °F

Past Weeks' High & Low Weather Summary

 TemperatureHumidityPressure
High90 °F (Jul 27, 5:53 PM)100% (Aug 2, 11:53 PM)30.04 "Hg (Aug 2, 11:53 PM)
Low59 °F (Jul 22, 3:53 AM)31% (Jul 27, 5:53 PM)29.62 "Hg (Aug 2, 8:53 PM)
Average74 °F64%29.89 "Hg
* Reported Jul 19 5:53 AM — Aug 3 5:53 AM, Pontiac, Weather by CustomWeather, © 2015

Note: Actual official high and low records may vary slightly from our data, if they occured in-between our weather recording intervals... More about our weather records

Advertising

Pontiac weather history for previous 24 hours

 ConditionsComfort  
Time TempWeatherWind HumidityBarometerVisibility
5:53 AM
Mon, Aug 3
63 °FDrizzle. Low clouds.9 mph97%29.72 "Hg10 mi
5:02 AM63 °FLight rain. Fog.12 mph97%29.74 "Hg3 mi
4:53 AM63 °FLight rain. Fog.9 mph93%29.72 "Hg4 mi
3:53 AM63 °FOvercast.10 mph93%29.71 "Hg10 mi
2:53 AM63 °FOvercast.6 mph93%29.69 "Hg10 mi
2:01 AM62 °FLight rain. Mostly cloudy.9 mph96%29.67 "Hg10 mi
1:02 AM62 °FThundershowers. Fog.15 mph96%29.70 "Hg6 mi
12:53 AM62 °FThunderstorms. Fog.14 mph96%29.69 "Hg5 mi
12:01 AM61 °FThundershowers. Overcast.6 mph97%29.74 "Hg7 mi
11:53 PM
Sun, Aug 2
60 °FThunderstorms. Overcast.7 mph100%29.74 "Hg7 mi
10:53 PM60 °FStrong thunderstorms. Fog.7 mph96%29.78 "Hg1 mi
9:53 PM67 °FMostly cloudy.14 mph76%29.70 "Hg10 mi
8:53 PM84 °FMostly cloudy.12 mph48%29.62 "Hg10 mi
7:53 PM85 °FMostly cloudy.10 mph48%29.64 "Hg10 mi
6:53 PM87 °FBroken clouds.18 mph43%29.64 "Hg10 mi
5:53 PM88 °FScattered clouds.20 mph42%29.65 "Hg10 mi
4:53 PM89 °FScattered clouds.21 mph38%29.70 "Hg10 mi
3:53 PM90 °FScattered clouds.16 mph38%29.72 "Hg10 mi
2:53 PM89 °FScattered clouds.20 mph34%29.72 "Hg10 mi
1:53 PM88 °FScattered clouds.15 mph38%29.75 "Hg10 mi
12:53 PM85 °FScattered clouds.16 mph48%29.78 "Hg10 mi
11:53 AM82 °FScattered clouds.9 mph63%29.80 "Hg10 mi
10:53 AM78 °FScattered clouds.9 mph69%29.82 "Hg10 mi
9:53 AM75 °FScattered clouds.8 mph71%29.83 "Hg10 mi
8:53 AM71 °FScattered clouds.7 mph73%29.85 "Hg10 mi
7:53 AM67 °FScattered clouds.6 mph73%29.86 "Hg10 mi
6:53 AM61 °FPassing clouds.No wind83%29.85 "Hg10 mi
Weather by CustomWeather, © 2015

See weather overviewHow to use our weather pages